This is the latest recevied weather packets stored in our database for station/object NK7E. If no packets are shown the sender has not sent any weather packets the latest 1 day(s).
| Time | Temp. | Humidity | Pressure | Rain* | Wind** | Luminosity | Snow |
|---|---|---|---|---|---|---|---|
| 1778089816 | 21.11° C | 34% | 1016.4 hPa | 0 mm | - | 915 W/m² | - |
| 1778088616 | 21.11° C | 37% | 1016.3 hPa | 0 mm | - | 879 W/m² | - |
| 1778088016 | 20.56° C | 36% | 1016.4 hPa | 0 mm | - | 862 W/m² | - |
| 1778086816 | 20.56° C | 39% | 1016.4 hPa | 0 mm | - | 817 W/m² | - |
| 1778086216 | 19.44° C | 40% | 1016.4 hPa | 0 mm | - | 797 W/m² | - |
| 1778085616 | 19.44° C | 43% | 1016.4 hPa | 0 mm | - | 772 W/m² | - |
| 1778085016 | 19.44° C | 43% | 1016.3 hPa | 0 mm | - | 744 W/m² | - |
| 1778084416 | 19.44° C | 42% | 1016.2 hPa | 0 mm | - | 718 W/m² | - |
| 1778083216 | 18.89° C | 42% | 1016.2 hPa | 0 mm | - | 658 W/m² | - |
| 1778082616 | 18.89° C | 45% | 1016.1 hPa | 0 mm | - | 628 W/m² | - |
| 1778082016 | 18.33° C | 44% | 1016.1 hPa | 0 mm | - | 598 W/m² | - |
| 1778081416 | 17.78° C | 47% | 1016.1 hPa | 0 mm | - | 563 W/m² | - |
| 1778080816 | 17.22° C | 48% | 1016.1 hPa | 0 mm | - | 529 W/m² | - |
| 1778080216 | 17.22° C | 50% | 1016.1 hPa | 0 mm | - | 495 W/m² | - |
| 1778079616 | 16.67° C | 52% | 1016.1 hPa | 0 mm | - | 458 W/m² | - |
| 1778079016 | 16.11° C | 53% | 1016 hPa | 0 mm | - | 423 W/m² | - |
| 1778078416 | 16.11° C | 53% | 1016 hPa | 0 mm | - | 387 W/m² | - |
| 1778077816 | 15.56° C | 54% | 1016.1 hPa | 0 mm | - | 352 W/m² | - |
| 1778077216 | 15° C | 57% | 1016 hPa | 0 mm | - | 314 W/m² | - |
| 1778076616 | 15° C | 58% | 1016 hPa | 0 mm | - | 279 W/m² | - |
| 1778075416 | 13.89° C | 62% | 1015.9 hPa | 0 mm | - | 208 W/m² | - |
| 1778074816 | 13.33° C | 65% | 1015.9 hPa | 0 mm | - | 175 W/m² | - |
| 1778073616 | 11.67° C | 72% | 1015.6 hPa | 0 mm | - | 108 W/m² | - |
| 1778073016 | 11.11° C | 74% | 1015.6 hPa | 0 mm | - | 70 W/m² | - |
| 1778071816 | 10.56° C | 74% | 1015.5 hPa | 0 mm | - | 12 W/m² | - |
* Rain latest hour (hover to see other rain measurements)
** Current wind speed in m/s (hover to see current wind gust speed)